TimeCST,TemperatureF,Dew PointF,Humidity,Sea Level PressureIn,VisibilityMPH,Wind Direction,Wind SpeedMPH,Gust SpeedMPH,PrecipitationIn,Events,Conditions,WindDirDegrees,DateUTC
12:35 AM,28.4,15.8,59,30.18,10.0,Calm,Calm,-,N/A,,Overcast,0,2013-01-25 06:35:00
12:55 AM,28.4,15.8,59,30.17,10.0,Calm,Calm,-,N/A,,Overcast,0,2013-01-25 06:55:00
1:15 AM,28.4,15.8,59,30.16,10.0,Calm,Calm,-,N/A,,Overcast,0,2013-01-25 07:15:00
1:36 AM,28.4,15.8,59,30.16,10.0,NNE,3.5,-,N/A,,Overcast,20,2013-01-25 07:36:00
1:55 AM,28.4,15.8,59,30.18,10.0,North,4.6,-,N/A,,Overcast,350,2013-01-25 07:55:00
2:15 AM,28.4,15.8,59,30.17,10.0,North,3.5,-,N/A,,Overcast,360,2013-01-25 08:15:00
2:55 AM,28.4,15.8,59,30.15,10.0,Calm,Calm,-,N/A,,Overcast,0,2013-01-25 08:55:00
3:15 AM,28.4,15.8,59,30.13,10.0,Calm,Calm,-,N/A,,Overcast,0,2013-01-25 09:15:00
3:35 AM,28.4,15.8,59,30.13,10.0,Calm,Calm,-,N/A,,Overcast,0,2013-01-25 09:35:00
3:56 AM,28.4,15.8,59,30.14,10.0,Calm,Calm,-,N/A,,Overcast,0,2013-01-25 09:56:00
4:15 AM,28.4,17.6,64,30.13,10.0,Calm,Calm,-,N/A,,Overcast,0,2013-01-25 10:15:00
4:35 AM,28.4,17.6,64,30.12,10.0,NNW,3.5,-,N/A,,Overcast,330,2013-01-25 10:35:00
4:55 AM,28.4,19.4,69,30.13,8.0,West,3.5,-,N/A,,Overcast,280,2013-01-25 10:55:00
5:15 AM,28.4,21.2,74,30.13,3.0,Calm,Calm,-,N/A,,Overcast,0,2013-01-25 11:15:00
5:35 AM,28.4,21.2,74,30.12,5.0,Calm,Calm,-,N/A,,Overcast,0,2013-01-25 11:35:00
5:55 AM,28.4,21.2,74,30.13,5.0,Calm,Calm,-,N/A,,Overcast,0,2013-01-25 11:55:00
6:35 AM,28.4,21.2,74,30.14,5.0,West,3.5,-,N/A,,Overcast,260,2013-01-25 12:35:00
6:55 AM,28.4,21.2,74,30.14,6.0,Calm,Calm,-,N/A,,Mostly Cloudy,0,2013-01-25 12:55:00
7:55 AM,30.2,23.0,75,30.16,4.0,WSW,3.5,-,N/A,,Overcast,240,2013-01-25 13:55:00
8:15 AM,30.2,23.0,75,30.15,5.0,SSW,4.6,-,N/A,,Overcast,200,2013-01-25 14:15:00
8:55 AM,30.2,24.8,80,30.18,5.0,WSW,3.5,-,N/A,,Scattered Clouds,240,2013-01-25 14:55:00
9:15 AM,32.0,24.8,75,30.18,7.0,West,3.5,-,N/A,,Partly Cloudy,270,2013-01-25 15:15:00
9:55 AM,33.8,24.8,70,30.19,8.0,Calm,Calm,-,N/A,,Overcast,0,2013-01-25 15:55:00
10:15 AM,35.6,26.6,70,30.20,9.0,North,3.5,-,N/A,,Overcast,10,2013-01-25 16:15:00
11:15 AM,39.2,26.6,61,30.19,9.0,NNW,6.9,-,N/A,,Overcast,330,2013-01-25 17:15:00
11:55 AM,39.2,26.6,61,30.18,10.0,NNW,5.8,-,N/A,,Overcast,340,2013-01-25 17:55:00
12:55 PM,42.8,28.4,57,30.16,10.0,NNW,6.9,-,N/A,,Clear,340,2013-01-25 18:55:00
1:15 PM,44.6,28.4,53,30.16,10.0,North,6.9,-,N/A,,Clear,350,2013-01-25 19:15:00
1:35 PM,44.6,28.4,53,30.16,10.0,NNW,4.6,-,N/A,,Clear,330,2013-01-25 19:35:00
1:56 PM,44.6,28.4,53,30.17,10.0,NNW,8.1,-,N/A,,Clear,330,2013-01-25 19:56:00
2:15 PM,46.4,28.4,50,30.17,10.0,NNW,6.9,-,N/A,,Clear,340,2013-01-25 20:15:00
2:35 PM,44.6,28.4,53,30.17,10.0,NNW,6.9,-,N/A,,Clear,340,2013-01-25 20:35:00
3:35 PM,46.4,28.4,50,30.16,10.0,WNW,3.5,-,N/A,,Clear,290,2013-01-25 21:35:00
4:16 PM,46.4,28.4,50,30.17,10.0,NNW,3.5,-,N/A,,Clear,330,2013-01-25 22:16:00
4:35 PM,46.4,28.4,50,30.17,10.0,Calm,Calm,-,N/A,,Clear,0,2013-01-25 22:35:00
4:55 PM,46.4,28.4,50,30.17,10.0,Calm,Calm,-,N/A,,Clear,0,2013-01-25 22:55:00
5:15 PM,44.6,28.4,53,30.16,10.0,Calm,Calm,-,N/A,,Clear,0,2013-01-25 23:15:00
5:35 PM,44.6,28.4,53,30.17,10.0,Calm,Calm,-,N/A,,Clear,0,2013-01-25 23:35:00
6:15 PM,42.8,28.4,57,30.18,10.0,Calm,Calm,-,N/A,,Clear,0,2013-01-26 00:15:00
6:55 PM,42.8,28.4,57,30.19,10.0,Calm,Calm,-,N/A,,Clear,0,2013-01-26 00:55:00
7:15 PM,41.0,28.4,61,30.19,10.0,Calm,Calm,-,N/A,,Clear,0,2013-01-26 01:15:00
7:55 PM,41.0,28.4,61,30.20,10.0,WSW,3.5,-,N/A,,Clear,240,2013-01-26 01:55:00
8:15 PM,39.2,28.4,65,30.19,10.0,Calm,Calm,-,N/A,,Clear,0,2013-01-26 02:15:00
8:55 PM,42.8,26.6,53,30.20,10.0,Calm,Calm,-,N/A,,Clear,0,2013-01-26 02:55:00
9:15 PM,39.2,28.4,65,30.21,10.0,Calm,Calm,-,N/A,,Clear,0,2013-01-26 03:15:00
9:35 PM,39.2,28.4,65,30.22,10.0,Calm,Calm,-,N/A,,Clear,0,2013-01-26 03:35:00
9:55 PM,37.4,28.4,70,30.23,10.0,NNE,4.6,-,N/A,,Clear,20,2013-01-26 03:55:00
10:15 PM,37.4,28.4,70,30.23,10.0,NNE,3.5,-,N/A,,Clear,20,2013-01-26 04:15:00
10:35 PM,37.4,26.6,65,30.24,10.0,Calm,Calm,-,N/A,,Clear,0,2013-01-26 04:35:00
10:55 PM,37.4,26.6,65,30.24,9.0,Calm,Calm,-,N/A,,Clear,0,2013-01-26 04:55:00
11:35 PM,35.6,26.6,70,30.24,4.0,Calm,Calm,-,N/A,,Clear,0,2013-01-26 05:35:00